カタログに戻る

SL-12 R/B

AUX MOTOR

運用中HEO
NORAD 14277·ROCKET BODY·🇷🇺 Russia

打ち上げ Aug 10, 1983 から Baikonur Cosmodrome

Loading…

次のパス (今後24時間)

TLE

最新Source: Space-Track

元期: Sep 14, 2026, 10:15 UTC

1 14277U 83084G   26257.42745788  .00007026  00000-0  17695-2 0  9996
2 14277  51.9721 307.1031 5393580 199.1838 128.3319  4.95447048724099

AllMySatでSL-12 R/Bをリアルタイム追跡

Download on the App Store